Location: Salillas
(41.9950°N, 0.2228°W)
Time: 02:21:31
(UTC+00:00)

Cosmos 1992 Rocket - Pass Details

Date: 29 March 2020
Orbit: 759 x 766 km, 74.0° (Epoch: 05 June)

Event Time Altitude Azimuth Distance (km) Brightness Sun altitude
Rises 21:03:27 0° 336° (NNW) 3,228 8.1 -28.4°
Reaches altitude 10° 21:05:51 10° 333° (NNW) 2,298 7.2 -28.7°
Enters shadow 21:10:39 60° 273° (W) 871 4.4 -29.4°
